Regional Weather Roundup
Issued by NWS

Home | Current Version | Previous Version | Graphics & Text | Print | Product List | Glossary Off
Versions: 1 2 3 4 5 6 7 8 9 10 11 12 13 14 15 16 17 18 19 20 21 22 23 24 25 26 27 28 29 30 31 32 33 34 35 36 37 38 39 40 41 42 43 44 45 46 47 48 49 50

000
ASUS43 KMKX 181800
RWRWI

WISCONSIN REGIONAL WEATHER ROUNDUP
NATIONAL WEATHER SERVICE MILWAUKEE/SULLIVAN WI
100 PM CDT SAT APR 18 2015

NOTE: "FAIR" INDICATES FEW OR NO CLOUDS BELOW 12,000 FEET WITH NO
SIGNIFICANT WEATHER AND/OR OBSTRUCTIONS TO VISIBILITY.

WIZ001-002-006>008-014>016-023>028-181900-
NORTHWEST WISCONSIN

CITY           SKY/WX    TMP DP  RH WIND       PRES   REMARKS
SUPERIOR ARPT  SUNNY     44  35  71 NE20G28   30.20F
ASHLAND        SUNNY     51  36  56 N17       30.21F
6HR MIN TEMP:  38; 6HR MAX TEMP:  52;

HAYWARD        SUNNY     62  23  22 E10       30.12F
6HR MIN TEMP:  42; 6HR MAX TEMP:  62;

SIREN          SUNNY     61  29  29 E7        30.11F
CUMBERLAND     SUNNY     61  30  31 E12       30.11F
RICE LAKE      SUNNY     62  30  29 SE3       30.12F
CHETEK         SUNNY     63  35  34 NE9       30.10F
LADYSMITH      SUNNY     63  29  27 E9        30.14S
EAU CLAIRE     NOT AVBL
MENOMONIE      MOSUNNY   66  29  24 E14       30.08F
NEW RICHMOND   MOSUNNY   67  29  24 E8G18     30.07F
OSCEOLA        SUNNY     66  32  28 E7        30.11F
$$

WIZ003>005-009-010-017-018-181900-
NORTH CENTRAL WISCONSIN

CITY           SKY/WX    TMP DP  RH WIND       PRES   REMARKS
MANITOWISH WTR SUNNY     57  25  29 E12       30.16F
ARBOR VITAE    SUNNY     58  25  27 E9        30.16S
WOODRUFF       SUNNY     58  25  27 E9        30.16S
RHINELANDER    SUNNY     59  25  27 E7G21     30.17S
6HR MIN TEMP:  41; 6HR MAX TEMP:  59;

EAGLE RIVER    SUNNY     56  21  25 E13       30.17F
LAND O LAKES   SUNNY     56  22  26 E9G18     30.19F
PHILLIPS       SUNNY     59  26  28 E10       30.14S
TOMAHAWK       SUNNY     62  24  23 E7        30.16S
MEDFORD        MOSUNNY   60  32  35 SE10      30.14S
MERRILL        MOSUNNY   60  29  30 E10G17    30.15S
$$

WIZ029-030-035-036-043>047-181900-
CENTRAL WISCONSIN

CITY           SKY/WX    TMP DP  RH WIND       PRES   REMARKS
WAUSAU         MOSUNNY   61  28  28 SE16      30.14S
6HR MIN TEMP:  47; 6HR MAX TEMP:  61;

MOSINEE        SUNNY     57  27  30 SE13G20   30.16S
MARSHFIELD     MOSUNNY   64  33  31 E13       30.12F
6HR MIN TEMP:  49; 6HR MAX TEMP:  64;

STEVENS POINT  MOSUNNY   58  30  35 E15G23    30.16S
WAUPACA        MOSUNNY   59  30  33 NE12G17   30.18S
WAUTOMA        NOT AVBL
WISC RAPIDS    MOSUNNY   60  30  32 SE15      30.14F
6HR MIN TEMP:  51; 6HR MAX TEMP:  63;

CAMP DOUGLAS   MOSUNNY   67  34  29 E18       30.09F
6HR MIN TEMP:  45; 6HR MAX TEMP:  67;

$$

WIZ011>013-019>022-031-037>040-048>050-181900-
NORTHEAST WISCONSIN

CITY           SKY/WX    TMP DP  RH WIND       PRES   REMARKS
ANTIGO         SUNNY     57  28  32 SE14G20   30.17F
SHAWANO        SUNNY     59  34  39 E9        30.19F
OCONTO         SUNNY     53  33  47 NE9G16    30.21S
STURGEON BAY   SUNNY     52  30  43 NE16      30.22F
6HR MIN TEMP:  43; 6HR MAX TEMP:  52;

GREEN BAY      MOSUNNY   55  39  54 NE17      30.19F
6HR MIN TEMP:  47; 6HR MAX TEMP:  55;

MANITOWOC      NOT AVBL
APPLETON       PTSUNNY   55  36  47 E14G20    30.18S
CLINTONVILLE   MOSUNNY   55  28  35 E15       30.18F
OSHKOSH        MOSUNNY   57  35  43 NE15      30.16S
6HR MIN TEMP:  49; 6HR MAX TEMP:  57;

$$

WIZ032>034-041-042-053>061-181900-
SOUTHWEST WISCONSIN

CITY           SKY/WX    TMP DP  RH WIND       PRES   REMARKS
LA CROSSE      MOSUNNY   73  33  23 E9G21     30.04F
6HR MIN TEMP:  48; 6HR MAX TEMP:  73;

SPARTA         MOSUNNY   68  31  24 E15       30.08F
VIROQUA        MOSUNNY   68  33  27 E21       30.07F
BOSCOBEL       MOSUNNY   73  38  27 E13G18    30.04F
6HR MIN TEMP:  47; 6HR MAX TEMP:  73;

PRAIRIE DU CHI SUNNY     73  37  27 E16       30.02F
PLATTEVILLE    MOSUNNY   70  39  32 E20       30.05S
$$

WIZ056-057-062-063-064-067-068-181900-
SOUTH CENTRAL WISCONSIN

CITY           SKY/WX    TMP DP  RH WIND       PRES   REMARKS
REEDSBURG      SUNNY     63  38  38 E13G18    30.10F
BARABOO/DELLS  SUNNY     62  35  36 E12G18    30.11F
LONE ROCK      NOT AVBL
MINERAL POINT  MOSUNNY   70  32  24 E14G24    30.06F
MADISON        MOSUNNY   66  37  34 E18       30.10F
6HR MIN TEMP:  46; 6HR MAX TEMP:  66;

MIDDLETON      SUNNY     66  34  30 E12G18    30.10F
WATERTOWN      SUNNY     62  36  38 NE12      30.11F
MONROE         SUNNY     68  36  30 E15G23    30.07F
JANESVILLE     SUNNY     70  32  24 E17       30.09F
$$

WIZ051-052-058>065-066-070>072-181900-
SOUTHEAST WISCONSIN

CITY           SKY/WX    TMP DP  RH WIND       PRES   REMARKS
MILWAUKEE      PTSUNNY   46  36  68 N23G30    30.15F
6HR MIN TEMP:  45; 6HR MAX TEMP:  51;

WAUKESHA       MOSUNNY   55  34  44 NE16G29   30.13
MILWAUKEE/TIMM SUNNY     54  34  47 NE18      30.14F
RACINE         SUNNY     48  36  63 N23       30.14F
6HR MIN TEMP:  46; 6HR MAX TEMP:  58;

BURLINGTON     SUNNY     59  34  38 NE13      30.12S
KENOSHA        SUNNY     55  38  52 N15       30.12F
6HR MIN TEMP:  52; 6HR MAX TEMP:  58;

FOND DU LAC    MOSUNNY   60  33  36 NE16      30.15F
6HR MIN TEMP:  50; 6HR MAX TEMP:  61;

SHEBOYGAN        N/A     53  36  52 NE21      30.16F
6HR MIN TEMP:  46; 6HR MAX TEMP:  53;

WEST BEND      SUNNY     55  30  38 NE12G21   30.14F
JUNEAU         SUNNY     60  33  36 E14G21    30.14S
$$

LSZ147-162-181900-
LAKE SUPERIOR

STATION/POSITION TIME  TEMP    WIND        PRES    WAVE
                       AIR SEA DIR/SP/G            HT/PER
                 (UTC) (F)     (DEG/KT/KT) (MB)    (FT/S)
DEVILS ISLAND    1700   36      40/ 16/ 17 1025.5F
PORT WING        1740   39      40/ 21/ 25 1023.0F
SAXON HARBOR     1700   39      40/ 15/ 20 1023.0S
$$

LMZ867-665-643>646-181900-
LAKE MICHIGAN

STATION/POSITION TIME  TEMP    WIND        PRES    WAVE
                       AIR SEA DIR/SP/G            HT/PER
                 (UTC) (F)     (DEG/KT/KT) (MB)    (FT/S)
CHAMBERS ISLAND  1700   44      40/ 11/ 12 1024.0S
NORTHPORT PIER   1700   43      CALM  /  2 1023.7S
SISTER BAY       1532   48     360/ 12/ 15   N/A
KEWAUNEE LAKESHO 1700   43      40/ 16/ 20 1022.0F
SHEBOYGAN LAKESH 1700   40      10/ 24/ 26 1022.3F
PORT WASHINGTON  1700   49      50/ 15/ 19 1021.7F
MILWAUKEE LAKESH 1700   42      10/ 22/ 31   N/A
KENOSHA   LAKESH 1700   43      10/ 23/ 27 1020.0R
$$

TC  - TEMPERATURE IN CELSIUS
VSB - VISIBILITY IN STATUTE MILES
WCI - WIND CHILL INDEX
HX  - HEAT INDEX



USA.gov is the U.S. government's official web portal to all federal, state and local government web resources and services.